Location: Guferjoch
(46.7462°N, 8.4506°E)
Time: 23:13:07
(UTC+00:00)

Cosmos 407 Rocket - Pass Details

Date: 14 July 2020
Orbit: 744 x 786 km, 74.0° (Epoch: 14 August)

Event Time Altitude Azimuth Distance (km) Brightness Sun altitude
Exits shadow 00:55:10 33° 174° (S) 1,299 4.2 -19.1°
Maximum altitude 00:57:28 61° 107° (ESE) 889 3.8 -19.0°
Drops below altitude 10° 01:02:45 10° 28° (NNE) 2,356 7.3 -18.6°
Sets 01:05:10 0° 25° (NNE) 3,287 8.5 -18.5°
